Location: Pcim
(49.7500°N, 19.9670°E)
Time: 02:48:46
(UTC+02:00)

SO-50 - Visible Passes

Search period start: 19 April 2024 00:00
Search period end: 29 April 2024 00:00
Orbit: 611 x 656 km, 64.6° (Epoch: 18 April)

Date Brightness Start Highest point End Pass type
(mag) Time Alt. Az. Time Alt. Az. Time Alt. Az.
19 Apr ? 20:59:40 10° NNW 21:02:43 18° NNE 21:05:45 10° ENE visible
19 Apr ? 22:39:28 10° NW 22:43:53 55° NE 22:44:13 54° ENE visible
20 Apr ? 00:20:13 10° WNW 00:21:38 17° WNW 00:21:38 17° WNW visible
20 Apr ? 21:21:26 10° NNW 21:25:09 25° NNE 21:28:04 14° E visible
20 Apr ? 23:01:23 10° NW 23:05:29 71° WNW 23:05:29 71° WNW visible
21 Apr ? 21:43:11 10° NNW 21:47:25 38° NE 21:49:22 25° E visible
21 Apr ? 23:23:31 10° NW 23:26:47 34° W 23:26:47 34° W visible
22 Apr ? 20:25:11 10° NNW 20:28:29 20° NNE 20:31:45 10° ENE visible
22 Apr ? 22:05:01 10° NW 22:09:29 70° NE 22:10:41 46° ESE visible
22 Apr ? 23:46:06 10° WNW 23:48:07 17° W 23:48:07 17° W visible
23 Apr ? 20:46:54 10° NNW 20:50:49 28° NE 20:54:36 10° E visible
23 Apr ? 22:26:57 10° NW 22:31:22 60° SW 22:32:02 53° SSW visible
24 Apr ? 21:08:39 10° NNW 21:13:00 47° NE 21:15:59 19° ESE visible
24 Apr ? 22:49:11 10° WNW 22:53:04 30° WSW 22:53:24 29° SW visible
25 Apr ? 21:30:29 10° NW 21:34:59 87° ENE 21:37:22 27° SE visible
25 Apr ? 23:12:06 10° WNW 23:14:34 15° WSW 23:14:48 15° WSW visible
26 Apr ? 21:52:29 10° NW 21:56:47 47° WSW 21:58:48 27° S visible
27 Apr ? 20:34:03 10° NW 20:38:29 58° NE 20:42:51 10° SE visible
27 Apr ? 22:14:51 10° WNW 22:18:23 23° WSW 22:20:17 18° SSW visible
28 Apr ? 20:55:54 10° NW 21:00:22 74° SW 21:04:21 13° SSE visible
28 Apr ? 22:38:33 10° W 22:39:48 11° WSW 22:41:02 10° SW visible
